Weather History for Truth Or Consequences, NM

Change the Weather History Date:

Sunday, June 30, 2013

  Actual Average Record
Temperature  
Mean Temperature 82 °F -  
Max Temperature 98 °F - 105 °F (1999)
Min Temperature 65 °F - 57 °F (2004)
Degree Days  
Heating Degree Days 0    
Month to date heating degree days 0  
Since 1 June heating degree days 0  
Since 1 July heating degree days 2992  
Cooling Degree Days 17    
Month to date cooling degree days 532  
Year to date cooling degree days 780  
Since 1 June cooling degree days 532  
Growing Degree Days 32 (Base 50)    
Moisture  
Dew Point 49 °F    
Average Humidity 29    
Maximum Humidity 44    
Minimum Humidity 13    
Precipitation  
Precipitation 0.07 in - 0.07 in (2013)
Month to date precipitation 0.07  
Year to date precipitation 0.35  
Sea Level Pressure  
Sea Level Pressure 29.85 in    
Wind  
Wind Speed 7 mph (NNE)    
Max Wind Speed 28 mph    
Max Gust Speed 35 mph    
Visibility 9 miles    
Events Rain , Thunderstorm    
T = Trace of Precipitation, MM = Missing Value Source: NWS Daily Summary

Daily Weather History Graph

Daily Weather History Graph

Search for Another Location

Airport:

Trip Planner

Search our weather history database for the weather conditions in past years. The results will help you decide how hot, cold, wet, or windy it might be!

Date:

Astronomy

Jun. 30, 2013 Rise Set
Actual Time 6:03 AM MDT 8:22 PM MDT
Civil Twilight 5:34 AM MDT 8:51 PM MDT
Nautical Twilight 4:59 AM MDT 9:26 PM MDT
Astronomical Twilight 4:20 AM MDT 10:04 PM MDT
Moon 12:48 AM MDT (6/30) 1:52 PM MDT (6/30)
Length of Visible Light 15h 16m
Length of Day
14h 19m
Last Quarter, 45% of the Moon is Illuminated
Jun 30
Last Quarter
Jul 8
New
Jul 15
First Quarter
Jul 22
Full
Jul 29
Last Quarter

Hourly Weather History & Observations

Time (MDT) Temp. Heat Index Dew Point Humidity Pressure Visibility Wind Dir Wind Speed Gust Speed Precip Events Conditions
12:53 AM 82.0 °F - 44.1 °F 26% 29.82 in 10.0 mi North 4.6 mph - N/A   Partly Cloudy
1:53 AM 82.0 °F - 44.1 °F 26% 29.81 in 10.0 mi NNE 9.2 mph - N/A   Clear
2:53 AM 79.0 °F - 45.0 °F 30% 29.80 in 10.0 mi Calm Calm - N/A   Clear
3:53 AM 78.1 °F - 45.0 °F 31% 29.81 in 10.0 mi West 3.5 mph - N/A   Clear
4:53 AM 77.0 °F - 46.9 °F 34% 29.82 in 10.0 mi NNE 5.8 mph - N/A   Clear
5:53 AM 75.0 °F - 48.0 °F 38% 29.83 in 10.0 mi NNE 4.6 mph - N/A   Clear
6:53 AM 73.9 °F - 50.0 °F 43% 29.85 in 10.0 mi North 5.8 mph - N/A   Partly Cloudy
7:53 AM 75.9 °F - 50.0 °F 40% 29.86 in 10.0 mi North 9.2 mph - N/A   Mostly Cloudy
8:53 AM 80.1 °F - 48.9 °F 34% 29.87 in 10.0 mi North 11.5 mph - N/A   Clear
9:53 AM 82.9 °F - 48.0 °F 29% 29.86 in 10.0 mi Variable 3.5 mph - N/A   Clear
10:53 AM 87.1 °F - 46.9 °F 25% 29.85 in 10.0 mi Variable 5.8 mph - N/A   Clear
11:53 AM 88.0 °F - 44.1 °F 22% 29.82 in 10.0 mi Calm Calm - N/A   Clear
12:53 PM 91.0 °F - 43.0 °F 19% 29.79 in 10.0 mi South 3.5 mph - N/A   Clear
1:53 PM 93.9 °F - 43.0 °F 17% 29.74 in 10.0 mi Variable 6.9 mph 18.4 mph N/A   Clear
2:53 PM 97.0 °F - 42.1 °F 15% 29.72 in 10.0 mi NNE 6.9 mph 17.3 mph N/A   Clear
3:53 PM 98.1 °F - 39.9 °F 13% 29.69 in 10.0 mi East 9.2 mph - N/A   Clear
4:53 PM 95.0 °F - 39.0 °F 14% 29.67 in 10.0 mi Calm Calm - N/A   Partly Cloudy
5:41 PM 95.0 °F - 39.2 °F 14% 29.97 in 10.0 mi Calm Calm - N/A Thunderstorm Clear
5:53 PM 89.1 °F - 46.9 °F 23% 29.68 in 10.0 mi WNW 23.0 mph 29.9 mph N/A   Clear
6:53 PM 90.0 °F - 46.0 °F 22% 29.68 in 7.0 mi WNW 11.5 mph - N/A   Clear
7:53 PM 88.0 °F - 46.9 °F 24% 29.70 in 9.0 mi West 5.8 mph - N/A   Clear
8:40 PM 82.4 °F - 48.2 °F 30% 30.06 in 7.0 mi East 5.8 mph 21.9 mph N/A   Overcast
8:53 PM 80.1 °F 80.0 °F 54.0 °F 40% 29.81 in 8.0 mi NE 10.4 mph - 0.00 in Rain , Thunderstorm Light Rain
9:42 PM 73.4 °F - 55.4 °F 53% 30.13 in 8.0 mi North 10.4 mph - 0.03 in Rain Light Rain
9:53 PM 73.9 °F - 57.0 °F 55% 29.88 in 10.0 mi NNW 13.8 mph 20.7 mph 0.03 in Rain , Thunderstorm Light Thunderstorms and Rain
10:42 PM 68.0 °F - 60.8 °F 78% 30.20 in 7.0 mi NE 20.7 mph 28.8 mph 0.01 in Rain , Thunderstorm Light Thunderstorms and Rain
10:53 PM 66.0 °F - 60.1 °F 81% 29.94 in 6.0 mi ENE 17.3 mph 28.8 mph 0.02 in Rain , Thunderstorm Thunderstorms and Rain
11:03 PM 66.2 °F - 60.8 °F 83% 30.17 in 6.0 mi East 18.4 mph 26.5 mph 0.01 in Rain Rain
11:53 PM 66.0 °F - 61.0 °F 84% 29.94 in 10.0 mi ENE 6.9 mph - 0.02 in   Mostly Cloudy